Theta_e
341 339 335 330 333 339 346 349 347 348 346 344 343 341 339 337 337 338 332 329 327 326 325 323 323 325 320 320 320 319 317 317 313 316 318 324 330 328 325 327 326 328 325
340 335 334 333 330 341 344 346 347 344 344 342 340 337 333 332 330 326 323 322 321 321 321 322 321 320 326 328 320 326 321 321 316 316 319 318 323 326 328 329 324 323 325
338 339 339 339 344 346 343 344 345 344 341 339 335 331 328 326 324 323 321 321 322 323 323 322 321 324 325 321 322 321 318 317 317 316 315 318 319 322 323 327 327 325 323
341 342 343 346 346 345 342 343 341 339 334 331 329 324 323 323 322 321 321 322 323 323 327 324 322 322 323 321 319 321 320 318 316 315 314 312 318 321 319 316 316 319 318
341 342 343 344 344 342 341 340 337 334 331 326 325 323 323 322 319 322 322 323 324 323 324 322 322 321 316 316 315 318 317 315 313 312 311 312 313 312 313 316 312 317 319
339 338 340 340 340 339 338 336 334 330 327 326 322 322 321 320 308 312 314 320 321 323 321 322 323 322 318 316 315 314 313 312 312 310 310 310 316 316 316 314 314 312 312
334 336 335 334 329 326 327 328 326 329 329 326 326 325 325 325 307 308 311 317 318 321 321 319 316 315 316 316 313 312 312 311 311 314 311 311 313 316 318 315 316 317 316
328 326 325 321 323 326 328 325 324 331 330 331 329 328 327 320 306 306 306 312 317 320 319 319 317 316 311 312 312 312 313 315 315 314 315 313 314 315 314 313 314 315 320
321 324 324 323 324 324 325 327 329 327 326 327 326 324 324 322 304 304 306 316 316 318 318 316 316 315 302 301 310 310 311 312 312 310 308 305 304 303 306 309 307 308 308
320 322 324 327 320 321 324 325 326 326 324 321 322 323 315 320 302 303 306 313 313 313 316 314 308 307 300 300 308 309 307 310 312 310 312 313 309 313 307 313 312 308 309
319 323 323 322 323 324 325 326 326 324 323 322 320 321 319 317 312 302 302 312 311 309 309 310 310 300 299 297 297 308 307 308 308 309 309 315 315 316 319 320 316 313 312
322 322 322 324 322 324 325 324 323 323 320 320 318 316 314 317 306 302 302 302 303 307 308 309 308 297 296 297 300 301 298 300 310 311 313 312 310 309 311 314 318 319 319
324 324 323 323 322 322 321 320 317 320 314 313 311 310 310 313 312 303 303 301 302 304 306 303 299 297 297 300 300 300 299 308 306 307 307 307 308 308 316 314 315 316 316
321 321 321 319 318 320 318 317 314 312 312 310 309 308 309 308 307 307 306 306 303 304 305 308 305 302 300 300 305 306 306 306 304 305 305 306 307 307 314 310 309 311 311
317 317 318 317 317 317 316 311 313 314 308 310 311 309 306 305 303 298 298 303 304 302 299 308 305 305 304 304 304 304 304 304 304 304 304 304 304 307 308 307 308 309 306
318 316 315 314 315 313 313 314 297 299 299 298 297 300 306 298 296 296 296 297 295 294 303 303 301 301 300 301 301 303 304 304 306 304 303 303 304 303 303 304 304 305 307
318 318 315 312 313 312 311 310 312 303 299 297 297 295 294 295 295 296 296 294 294 295 304 303 302 301 302 301 303 304 303 305 307 304 303 303 301 301 300 301 302 303 307
318 304 314 314 314 310 311 311 312 311 309 307 298 299 294 294 295 296 295 296 304 302 303 302 301 300 301 302 302 303 303 304 304 304 303 303 304 301 300 301 302 304 307
315 312 313 313 310 309 311 309 308 309 310 307 306 300 298 295 295 295 294 305 304 303 302 302 303 302 301 301 302 304 303 304 304 303 304 304 302 302 301 302 304 297 301
313 304 306 312 309 309 310 310 310 309 309 308 309 311 312 303 303 308 306 305 304 304 303 303 303 302 301 301 303 302 303 302 303 303 303 303 302 302 300 300 300 299 299
312 313 302 309 308 309 311 310 309 310 309 309 311 307 288 306 307 307 307 305 305 304 303 304 302 302 301 302 301 302 300 297 300 302 302 303 303 301 301 301 301 301 301
312 312 310 311 311 311 310 310 309 311 310 309 311 308 292 309 309 306 306 305 306 305 305 304 303 302 302 302 302 301 301 296 298 300 302 304 303 302 302 302 302 301 300
312 312 312 310 311 306 311 312 308 306 304 304 304 303 304 305 304 304 305 305 306 304 304 303 303 303 303 304 304 302 301 294 295 300 303 303 303 302 302 301 302 300 299
311 309 308 309 308 308 307 306 305 301 303 303 303 303 304 304 303 303 302 303 303 303 303 302 302 302 303 303 303 302 300 294 291 302 304 306 304 302 303 302 301 302 301
309 310 309 309 307 306 305 304 304 304 304 303 302 302 301 301 301 300 300 300 300 300 300 301 302 301 302 303 301 300 292 286 289 287 304 309 307 306 306 302 302 304 304
308 308 308 308 307 307 306 304 303 303 302 301 301 301 300 300 299 299 299 298 298 298 299 299 300 300 301 302 298 289 286 286 288 286 296 309 306 305 306 305 303 306 306
Wind_Speed
11 9 5 10 4 10 10 3 3 3 3 4 4 6 6 5 3 2 2 4 4 4 5 6 6 6 6 7 8 9 9 8 10 9 10 8 9 9 9 10 7 9 10
11 10 11 8 9 11 8 5 5 5 6 5 6 7 7 6 2 2 3 5 4 5 5 6 9 8 8 9 9 7 8 9 6 9 8 9 10 11 11 10 9 7 8
6 8 6 10 12 9 7 6 6 7 8 8 6 4 3 2 1 1 3 4 5 7 8 8 9 9 8 8 7 9 8 7 8 9 10 9 10 10 12 10 9 9 8
7 6 5 5 8 9 8 7 10 9 8 5 4 4 3 2 3 3 4 5 7 9 5 5 6 9 4 5 7 10 10 8 8 9 10 9 11 10 5 7 8 6 4
8 7 7 7 6 7 10 10 8 7 5 4 6 3 4 4 4 2 5 7 9 9 7 9 10 3 5 1 5 8 11 11 11 11 12 12 11 10 10 10 6 9 7
10 10 9 9 8 5 7 7 6 5 4 5 3 4 4 5 7 8 4 7 9 11 9 8 11 8 5 7 5 9 10 10 11 10 11 12 13 12 11 10 8 7 9
12 12 10 10 12 14 12 9 6 2 2 3 4 5 5 3 5 4 3 8 10 10 8 6 6 3 6 2 4 9 16 18 17 10 11 12 14 13 12 14 13 9 8
14 12 11 10 7 7 6 4 5 4 3 4 3 6 7 3 3 3 6 10 12 11 5 3 3 5 4 4 7 11 12 9 7 7 10 11 13 11 11 11 14 11 9
7 6 5 4 6 8 10 9 6 1 3 4 7 4 5 4 4 4 8 12 12 5 3 5 9 7 6 3 8 11 13 13 5 12 11 11 12 14 11 11 11 11 12
3 1 6 4 2 6 6 5 3 2 3 5 5 5 3 2 4 6 7 9 11 8 7 4 4 6 6 1 8 11 12 12 12 14 13 8 13 12 14 12 10 11 11
3 6 4 5 5 6 4 4 4 2 4 4 6 5 8 6 7 6 6 9 9 10 9 7 2 5 8 9 10 8 11 12 16 14 12 9 8 7 8 7 8 9 9
5 6 6 6 7 7 6 3 2 2 6 5 5 4 7 9 7 3 1 3 4 9 9 6 6 6 9 11 9 9 12 11 10 9 8 8 8 5 5 9 10 9 9
9 9 9 8 7 5 4 3 6 6 6 4 6 6 5 3 3 6 6 7 8 9 8 10 15 13 15 15 14 13 12 8 8 9 8 9 9 7 7 8 9 11 11
9 8 6 7 4 5 5 5 7 4 2 5 5 5 4 3 5 9 9 8 9 9 9 9 9 8 11 4 6 7 7 7 7 10 9 9 9 10 7 7 9 7 7
8 5 1 3 4 5 6 5 5 6 6 3 4 4 3 3 6 3 5 7 9 11 12 8 11 11 12 12 11 9 7 8 9 10 9 10 9 8 10 10 8 9 6
2 3 2 6 6 3 2 6 12 11 6 5 6 6 7 8 2 6 9 8 16 16 8 9 9 7 8 8 9 10 10 11 11 6 7 8 8 12 10 9 7 8 8
5 4 2 4 1 3 4 3 4 4 0 1 2 4 6 6 1 8 12 9 16 14 7 8 8 9 10 8 10 9 9 9 11 8 8 8 4 7 8 8 7 7 10
3 2 3 3 2 2 3 2 6 5 5 6 5 5 5 3 4 9 13 18 6 3 8 7 6 6 6 8 9 9 9 8 10 10 10 8 6 9 8 8 7 8 6
5 2 4 3 5 4 4 6 6 4 3 7 6 6 7 8 8 11 10 8 10 8 8 8 7 7 8 6 8 11 11 12 12 10 10 9 8 8 9 8 4 6 8
7 6 3 4 5 2 5 3 3 2 4 5 3 2 3 3 4 3 5 6 7 10 9 9 8 7 6 7 9 9 11 13 11 11 10 8 9 7 7 7 7 8 7
6 4 3 5 4 4 2 4 5 5 4 5 4 3 5 5 5 5 5 4 7 7 10 10 9 9 8 7 8 9 7 8 13 11 11 6 7 8 7 6 6 6 6
3 1 4 4 4 5 5 4 5 6 7 7 8 5 4 4 3 5 5 5 6 7 8 11 10 8 9 9 9 8 8 9 12 11 12 7 5 6 6 7 7 7 8
4 3 3 3 5 2 4 6 6 7 6 7 6 6 6 7 7 7 7 6 6 7 8 8 9 11 10 7 7 9 11 9 10 11 12 7 5 5 5 6 6 6 6
7 7 6 2 6 6 9 5 6 7 7 8 6 6 6 7 7 9 9 10 8 8 8 7 7 10 12 9 9 11 10 10 8 11 14 7 4 4 4 4 4 5 4
8 7 7 7 7 6 6 6 7 7 7 7 8 8 6 8 9 9 9 10 10 10 9 9 7 10 11 13 14 15 12 10 10 11 10 12 4 8 6 2 1 2 4
9 8 7 7 6 6 6 6 6 7 5 6 8 9 8 9 9 9 9 9 8 8 10 8 11 16 13 12 15 12 9 11 12 12 10 8 6 3 4 5 2 4 2
Wind_Direction
142 159 173 113 213 246 251 229 242 193 190 180 141 142 140 123 109 204 272 290 307 335 310 293 308 297 295 309 313 300 295 290 301 311 328 310 330 294 275 275 282 280 281
177 191 195 201 192 205 219 168 177 173 175 141 147 136 153 161 154 315 302 2 328 317 311 313 312 311 322 289 284 334 314 303 301 298 286 298 280 276 282 258 260 260 264
223 224 169 180 177 156 149 160 186 166 143 138 133 144 151 101 149 327 327 344 325 301 293 293 305 303 291 299 335 322 326 311 295 291 297 283 297 296 290 273 256 246 252
169 128 132 156 152 158 154 149 148 140 135 132 127 84 25 6 295 293 320 301 302 305 337 312 292 288 339 337 306 306 291 302 294 277 270 281 270 262 245 294 301 306 292
138 147 153 140 140 145 141 141 135 129 129 127 81 21 352 325 315 230 319 317 309 305 309 281 266 225 216 260 305 308 313 302 303 302 298 299 298 301 304 306 287 287 299
113 123 128 116 106 92 96 94 89 79 44 19 27 308 302 278 76 60 357 293 292 285 295 298 296 278 151 196 217 245 275 282 289 294 297 297 302 301 299 296 312 311 290
90 67 64 72 71 49 31 18 7 7 1 316 308 292 287 279 100 82 331 283 291 290 301 313 327 302 238 25 339 289 256 240 241 274 291 296 299 300 309 308 294 282 272
69 69 62 56 87 135 166 163 239 221 235 270 296 308 342 42 85 7 313 284 277 276 269 308 314 293 51 337 328 304 304 305 298 255 276 298 296 303 310 296 289 288 279
111 108 123 155 154 181 197 192 198 31 353 313 272 327 298 87 117 29 332 301 296 330 311 260 250 274 118 94 320 305 304 299 256 219 240 249 260 268 265 286 272 259 265
55 191 236 219 78 76 66 68 76 5 318 341 350 351 322 339 90 48 1 308 310 336 324 67 273 68 134 148 300 301 296 301 326 317 301 279 248 256 234 242 270 277 281
247 198 124 86 81 66 79 63 49 23 344 301 291 353 46 43 106 57 19 320 347 326 329 335 19 38 295 267 241 288 293 302 294 292 288 299 296 276 263 246 253 261 272
121 91 83 64 26 77 70 45 345 288 306 343 45 356 48 89 69 86 119 264 315 316 305 320 345 273 281 282 277 277 269 288 296 310 305 296 295 314 314 325 322 295 270
85 82 74 72 71 39 345 1 317 5 37 360 33 70 62 113 94 190 229 254 264 295 333 316 283 273 272 278 270 269 297 319 333 335 327 320 328 295 314 324 318 303 283
95 97 110 92 357 22 320 17 36 37 23 40 41 78 75 21 13 17 1 354 342 337 350 303 291 276 325 313 5 1 351 346 341 329 330 331 328 316 327 333 322 302 291
108 119 67 19 2 20 67 17 14 58 15 321 93 139 134 88 62 335 312 341 338 329 323 356 22 10 7 2 355 344 336 332 337 339 322 337 323 324 322 337 313 303 276
23 17 22 325 23 28 344 130 52 67 65 31 43 31 91 88 143 267 272 284 291 293 340 34 24 4 359 349 332 342 356 350 340 350 330 318 335 337 324 310 296 292 282
4 319 18 3 33 338 12 24 110 112 252 147 68 65 77 91 249 294 296 282 264 285 53 34 14 358 354 356 340 355 351 342 335 349 323 313 335 323 290 291 285 280 278
58 301 338 37 41 17 51 23 137 178 179 163 214 225 151 180 262 294 308 317 10 27 47 29 24 3 346 343 353 3 345 12 331 349 334 335 351 313 301 290 283 279 279
54 9 75 132 59 3 26 34 19 35 54 147 163 213 181 215 246 271 296 305 351 13 24 14 15 17 358 356 345 348 11 349 351 343 345 359 340 325 325 328 51 47 73
69 2 346 347 81 23 71 37 340 27 39 26 30 354 280 162 209 292 261 15 356 354 21 0 5 17 14 353 354 359 14 357 347 342 352 4 347 356 0 23 41 58 65
109 129 18 44 20 15 55 357 2 14 10 356 331 53 23 320 341 16 356 27 14 2 350 353 355 15 16 4 353 358 28 6 345 342 340 5 3 4 17 42 57 69 63
143 249 35 67 25 1 9 360 4 357 25 30 38 64 340 344 18 25 24 359 10 10 359 346 348 7 24 2 353 357 5 10 343 342 330 354 13 12 14 21 46 63 77
73 23 115 52 29 26 325 29 11 70 54 53 50 33 3 12 0 4 353 16 2 2 11 8 349 347 4 356 350 0 17 3 332 327 331 341 22 28 26 34 46 54 55
39 83 68 18 38 45 64 63 72 54 25 41 33 12 15 8 10 14 8 10 8 11 10 1 358 350 331 348 13 358 21 356 324 331 327 333 74 40 61 46 35 59 86
41 38 52 51 65 74 68 61 55 40 31 33 17 26 24 17 24 24 20 11 1 359 356 351 354 344 348 11 15 359 357 331 328 321 326 332 23 133 121 74 303 269 211
55 52 43 43 34 44 62 60 66 58 46 32 35 35 21 19 21 11 8 9 359 354 357 358 359 348 357 13 9 348 336 336 334 327 319 322 337 50 96 115 325 326 156